This is the latest recevied weather packets stored in our database for station/object K4VEB. If no packets are shown the sender has not sent any weather packets the latest 10 day(s).
| Time | Temp. | Humidity | Pressure | Rain* | Wind** | Luminosity | Snow |
|---|---|---|---|---|---|---|---|
| 1777936824 | 25.56° C | 50% | 1014.4 hPa | 0 mm | - | 38 W/m² | - |
| 1777936520 | 25.56° C | 50% | 1014.1 hPa | 0 mm | - | 48 W/m² | - |
| 1777936216 | 25.56° C | 50% | 1014.1 hPa | 0 mm | - | 59 W/m² | - |
| 1777935913 | 26.11° C | 50% | 1014.1 hPa | 0 mm | - | 73 W/m² | - |
| 1777935612 | 25.56° C | 49% | 1014.1 hPa | 0 mm | - | 86 W/m² | - |
| 1777935308 | 26.11° C | 49% | 1014.2 hPa | 0 mm | - | 65 W/m² | - |
| 1777935005 | 26.67° C | 48% | 1014.2 hPa | 0 mm | - | 69 W/m² | - |
| 1777934701 | 26.67° C | 47% | 1014 hPa | 0 mm | - | 126 W/m² | - |
| 1777934399 | 26.67° C | 46% | 1014.2 hPa | 0 mm | - | 134 W/m² | - |
| 1777934095 | 26.67° C | 47% | 1014.1 hPa | 0 mm | - | 152 W/m² | - |
| 1777933791 | 26.67° C | 47% | 1014.2 hPa | 0 mm | - | 164 W/m² | - |
| 1777933489 | 26.11° C | 47% | 1014.2 hPa | 0 mm | - | 189 W/m² | - |
| 1777933186 | 26.11° C | 47% | 1014.3 hPa | 0 mm | - | 186 W/m² | - |
| 1777932883 | 26.67° C | 47% | 1014.3 hPa | 0 mm | - | 84 W/m² | - |
| 1777932580 | 26.67° C | 45% | 1014.2 hPa | 0 mm | - | 75 W/m² | - |
| 1777932276 | 27.78° C | 42% | 1014.3 hPa | 0 mm | - | 88 W/m² | - |
| 1777931974 | 27.78° C | 41% | 1014.1 hPa | 0 mm | - | 261 W/m² | - |
| 1777931671 | 27.22° C | 43% | 1014.3 hPa | 0 mm | - | 278 W/m² | - |
| 1777931367 | 27.78° C | 43% | 1014.1 hPa | 0 mm | - | 320 W/m² | - |
| 1777931063 | 28.33° C | 41% | 1014.2 hPa | 0 mm | - | 340 W/m² | - |
| 1777930760 | 27.78° C | 40% | 1014.2 hPa | 0 mm | - | 348 W/m² | - |
| 1777930456 | 28.33° C | 41% | 1014.1 hPa | 0 mm | - | 368 W/m² | - |
| 1777930154 | 28.33° C | 41% | 1014.2 hPa | 0 mm | - | 388 W/m² | - |
| 1777929849 | 28.89° C | 41% | 1014.3 hPa | 0 mm | - | 426 W/m² | - |
| 1777929548 | 28.89° C | 39% | 1014.2 hPa | 0 mm | - | 442 W/m² | - |
* Rain latest hour (hover to see other rain measurements)
** Current wind speed in m/s (hover to see current wind gust speed)